Location: Newark
(12.4436°N, 0.6167°W)
Time: 12:52:58
(UTC+00:00)

Vanguard 2 - Pass Details

Date: 09 December 2019
Orbit: 553 x 2938 km, 32.9° (Epoch: 17 January)

Event Time Altitude Azimuth Distance (km) Brightness Sun altitude
Rises 05:33:41 0° 299° (WNW) 6,770 - -9.5°
Exits shadow 05:37:45 - 305° (NW) 5,987 11.4 -8.6°
Reaches altitude 10° 05:38:56 10° 307° (NW) 5,761 11.3 -8.3°
Maximum altitude 05:54:36 38° 9° (N) 3,502 10.8 -4.8°
Drops below altitude 10° 06:06:24 10° 73° (ENE) 4,403 12.3 -2.1°
Sets 06:09:45 0° 82° (E) 5,085 12.9 -1.4°
